Flag for Germany Weather past 2 weeks in Weimar, Thuringia, Germany

Now
66 °F

Scattered clouds.


Feels Like: 66 °F
Forecast: 50 / 65 °F
Wind: 8 mph from Northwest

Location: Erfurt-Bindersleben

Current Time: Sep 2, 2015 at 3:04:40 PM

Latest Report: Sep 2, 2015 at 2:20 PM


Visibility: N/A

Pressure: 30.04 "Hg

Humidity: 46%

Dew point: 45 °F

Location of WeimarLocation

Historic Weather in Weimar — Graph

°F

Weimar temperature yesterday

Maximum temperature yesterday: 81 °F (at 1:50 PM)
Minimum temperature yesterday: 57 °F (at 10:50 PM)
Average temperature yesterday: 69 °F

Past Weeks' High & Low Weather Summary

 TemperatureHumidityPressure
High91 °F (Aug 30, 3:50 PM)100% (Aug 19, 4:20 AM)30.30 "Hg (Aug 19, 4:20 AM)
Low48 °F (Aug 19, 6:50 AM)28% (Aug 31, 4:20 PM)29.71 "Hg (Aug 24, 1:50 PM)
Average65 °F69%30.03 "Hg
* Reported Aug 18 1:20 PM — Sep 2 1:50 PM, Weimar, Weather by CustomWeather, © 2015

Note: Actual official high and low records may vary slightly from our data, if they occured in-between our weather recording intervals... More about our weather records

Advertising

Weimar weather history for previous 24 hours

 ConditionsComfort  
Time TempWeatherWind HumidityBarometerVisibility
1:50 PM
Wed, Sep 2
66 °FScattered clouds.7 mph46%30.04 "HgN/A
1:20 PM64 °FScattered clouds.8 mph52%30.04 "HgN/A
12:50 PM64 °FScattered clouds.7 mph52%30.04 "HgN/A
12:20 PM63 °FScattered clouds.8 mph56%30.04 "HgN/A
11:50 AM63 °FScattered clouds.7 mph56%30.07 "HgN/A
11:20 AM63 °FScattered clouds.8 mph56%30.07 "HgN/A
10:50 AM61 °FScattered clouds.7 mph63%30.07 "HgN/A
10:20 AM59 °FPassing clouds.7 mph72%30.07 "HgN/A
9:50 AM59 °FPassing clouds.8 mph72%30.07 "HgN/A
9:20 AM57 °FScattered clouds.6 mph82%30.07 "HgN/A
8:50 AM55 °FScattered clouds.8 mph88%30.07 "HgN/A
8:20 AM55 °FScattered clouds.3 mph82%30.07 "HgN/A
7:50 AM52 °FScattered clouds.6 mph94%30.04 "HgN/A
7:20 AM50 °FPassing clouds.6 mph94%30.04 "HgN/A
6:50 AM50 °FPassing clouds.6 mph94%30.04 "HgN/A
6:20 AM50 °FPassing clouds.7 mph94%30.04 "HgN/A
5:50 AM50 °FPassing clouds.6 mph100%30.04 "HgN/A
5:20 AM50 °FFog.5 mph100%30.04 "HgN/A
4:50 AM52 °FPassing clouds.6 mph94%30.04 "HgN/A
4:20 AM50 °FFog.6 mph100%30.04 "HgN/A
3:50 AM50 °FFog.5 mph100%30.04 "HgN/A
3:20 AM52 °FClear.6 mph94%30.04 "Hg10 mi
2:50 AM52 °FPassing clouds.6 mph94%30.04 "HgN/A
2:20 AM54 °FClear.8 mph94%30.04 "Hg10 mi
1:50 AM54 °FClear.9 mph94%30.04 "Hg10 mi
1:20 AM54 °FClear.7 mph94%30.04 "Hg10 mi
12:50 AM55 °FPassing clouds.7 mph88%30.01 "HgN/A
11:20 PM
Tue, Sep 1
57 °FPassing clouds.8 mph82%30.01 "HgN/A
10:50 PM57 °FPassing clouds.8 mph82%29.98 "HgN/A
10:20 PM59 °FPassing clouds.10 mph77%29.98 "HgN/A
9:50 PM59 °FPartly cloudy.9 mph82%29.98 "HgN/A
9:20 PM59 °FPartly cloudy.9 mph88%29.98 "HgN/A
8:50 PM59 °FPartly sunny.9 mph88%29.95 "HgN/A
8:20 PM61 °FPartly sunny.10 mph83%29.95 "HgN/A
7:50 PM61 °FPartly sunny.9 mph83%29.92 "HgN/A
7:20 PM61 °FPartly sunny.12 mph77%29.92 "HgN/A
6:50 PM61 °FPartly sunny.13 mph83%29.92 "HgN/A
6:20 PM61 °FLight rain. Broken clouds.18 mph83%29.89 "HgN/A
5:20 PM63 °FLight rain. Partly sunny.21 mph83%29.83 "HgN/A
4:50 PM68 °FBroken clouds.13 mph69%29.83 "HgN/A
4:20 PM72 °FLight rain. Broken clouds.16 mph61%29.80 "HgN/A
3:50 PM73 °FPartly sunny.25 mph53%29.80 "HgN/A
3:20 PM77 °FBroken clouds.21 mph47%29.80 "HgN/A
Weather by CustomWeather, © 2015

See weather overviewHow to use our weather pages